sat.trackr.live / text

‹ back to catalog

STARLINK-1815

NORAD 46713 · 2020-073AV

PAYLOAD ACTIVE UNKNOWN

§ Identity

Operator
Country
US
Launch date
2020-10-18
Launch site
AFETR
Launch vehicle
Mass (kg)
RCS (m²)

Purposes: comms

External: N2YO · Heavens-Above · Gunter

§ Orbital elements

Epoch: 2026-05-25T06:00:02.000160Z

Period
90.44 min
Inclination
53.0357°
Eccentricity
0.0008994
Mean motion
15.92229947 rev/d
Perigee alt
290.0 km
Apogee alt
302.0 km
Semi-major
6,674.2 km
B*
4.8459e-4
RAAN
178.7291°
Arg perigee
2.8023°
Mean anomaly
57.3124°
Rev number
580

§ Raw data

STARLINK-18151 46713U 20073AV  26145.25002315  .00163961  21178-4  48459-3 0  99912 46713  53.0357 178.7291 0008994   2.8023  57.3124 15.92229947  5801

JSON: /api/v1/satellites/46713 · /tle

For live sub-satellite position, see the globe view (requires WebGL).

§ Visibility from observer

Set your observer location to see the next 7 days of passes ≥ 10°. The values pass through the URL so the page stays shareable.

No JS? Fill the form by hand. The geolocation button needs JavaScript.